Flag for U.S.A. Weather past 2 weeks in Brattleboro, Vermont, U.S.A.

Now
64 °F

Partly sunny.


Feels Like: 64 °F
Forecast: 41 / 70 °F
Wind: 23 mph from North

Location: Keene / Dillant

Current Time: Apr 18, 2015 at 5:46:16 PM

Latest Report: Apr 18, 2015 at 5:15 PM


Visibility: 10 mi

Pressure: 29.86 "Hg

Humidity: 40%

Dew point: 39 °F

Location of BrattleboroLocation

Historic Weather in Brattleboro — Graph

°F

Brattleboro temperature yesterday

Maximum temperature yesterday: 63 °F (at 4:55 PM)
Minimum temperature yesterday: 45 °F (at 4:55 AM)
Average temperature yesterday: 53 °F

Past Weeks' High & Low Weather Summary

 TemperatureHumidityPressure
High72 °F (Apr 13, 2:55 PM)100% (Apr 4, 3:35 AM)30.49 "Hg (Apr 4, 3:35 AM)
Low25 °F (Apr 12, 6:15 AM)14% (Apr 16, 3:55 PM)29.47 "Hg (Apr 4, 5:55 AM)
Average43 °F62%30.12 "Hg
* Reported Apr 3 4:15 PM — Apr 18 4:35 PM, Brattleboro, Weather by CustomWeather, © 2015

Note: Actual official high and low records may vary slightly from our data, if they occured in-between our weather recording intervals... More about our weather records

Advertising

Brattleboro weather history for previous 24 hours

 ConditionsComfort  
Time TempWeatherWind HumidityBarometerVisibility
4:35 PM
Sat, Apr 18
70 °FPartly sunny.14 mph31%29.80 "Hg10 mi
4:15 PM72 °FPartly sunny.20 mph29%29.79 "Hg10 mi
3:55 PM70 °FPassing clouds.7 mph31%29.80 "Hg10 mi
3:35 PM70 °FSunny.14 mph31%29.81 "Hg10 mi
3:15 PM68 °FPassing clouds.12 mph33%29.82 "Hg10 mi
2:55 PM66 °FScattered clouds.12 mph35%29.83 "Hg10 mi
2:35 PM66 °FBroken clouds.13 mph32%29.84 "Hg10 mi
2:15 PM66 °FPartly sunny.8 mph32%29.86 "Hg10 mi
1:55 PM64 °FOvercast.5 mph34%29.87 "Hg10 mi
1:35 PM66 °FPartly sunny.8 mph32%29.86 "Hg10 mi
1:15 PM66 °FPartly sunny.6 mph32%29.87 "Hg10 mi
12:55 PM66 °FPassing clouds.10 mph35%29.88 "Hg10 mi
12:35 PM66 °FSunny.14 mph32%29.89 "Hg10 mi
12:15 PM66 °FSunny.13 mph35%29.90 "Hg10 mi
11:55 AM64 °FSunny.9 mph37%29.90 "Hg10 mi
11:35 AM64 °FPassing clouds.6 mph37%29.92 "Hg10 mi
11:15 AM63 °FSunny.6 mph45%29.93 "Hg10 mi
10:55 AM61 °FSunny.6 mph52%29.93 "Hg10 mi
10:35 AM59 °FSunny.3 mph59%29.95 "Hg10 mi
10:15 AM57 °FSunny.5 mph63%29.96 "Hg10 mi
9:55 AM54 °FSunny.No wind72%29.96 "Hg10 mi
9:35 AM48 °FSunny.No wind82%29.97 "Hg10 mi
9:15 AM46 °FSunny.3 mph87%29.97 "Hg10 mi
8:55 AM45 °FPassing clouds.No wind87%29.97 "Hg10 mi
8:35 AM43 °FPartly sunny.No wind87%29.96 "Hg2 mi
8:15 AM39 °FLow clouds.No wind93%29.97 "Hg1 mi
7:55 AM37 °FLow clouds.No wind93%29.98 "Hg0 mi
7:35 AM37 °FLow clouds.No wind93%29.97 "Hg0 mi
7:15 AM37 °FLow clouds.No wind93%29.98 "Hg0 mi
6:55 AM36 °FLow clouds.3 mph93%29.97 "Hg0 mi
6:35 AM36 °FLow clouds.No wind100%29.96 "Hg0 mi
6:15 AM36 °FLow clouds.3 mph93%29.96 "Hg0 mi
5:55 AM36 °FLow clouds.No wind93%29.95 "Hg1 mi
5:35 AM37 °FLow clouds.No wind93%29.95 "Hg0 mi
5:15 AM37 °FLow clouds.No wind93%29.95 "Hg0 mi
4:55 AM37 °FPassing clouds.No wind93%29.94 "Hg3 mi
4:35 AM37 °FLow clouds.No wind93%29.94 "Hg0 mi
4:15 AM37 °FLow clouds.No wind93%29.95 "Hg0 mi
3:55 AM37 °FLow clouds.No wind93%29.94 "Hg0 mi
3:35 AM37 °FLow clouds.No wind93%29.94 "Hg0 mi
3:15 AM39 °FLow clouds.No wind93%29.94 "Hg0 mi
2:55 AM37 °FLow clouds.No wind100%29.94 "Hg1 mi
2:35 AM39 °FLow clouds.No wind93%29.94 "Hg0 mi
2:15 AM39 °FPassing clouds.No wind93%29.95 "Hg0 mi
1:55 AM41 °FDense fog.No wind87%29.95 "Hg1 mi
1:15 AM43 °FClear.No wind87%29.96 "Hg6 mi
12:55 AM43 °FClear.No wind87%29.96 "Hg6 mi
12:35 AM43 °FClear.No wind87%29.95 "Hg6 mi
12:15 AM45 °FClear.No wind93%29.95 "Hg10 mi
11:55 PM
Fri, Apr 17
45 °FClear.7 mph87%29.94 "Hg10 mi
11:15 PM46 °FClear.No wind87%29.94 "Hg10 mi
10:55 PM46 °FClear.5 mph87%29.93 "Hg10 mi
10:35 PM48 °FClear.3 mph82%29.93 "Hg10 mi
10:15 PM50 °FClear.No wind76%29.93 "Hg10 mi
9:55 PM54 °FClear.5 mph72%29.92 "Hg10 mi
9:35 PM55 °FClear.No wind67%29.92 "Hg10 mi
9:15 PM54 °FClear.No wind72%29.92 "Hg10 mi
8:55 PM55 °FClear.3 mph67%29.91 "Hg10 mi
8:35 PM55 °FClear.3 mph67%29.91 "Hg10 mi
8:15 PM57 °FSunny.No wind63%29.90 "Hg10 mi
7:55 PM59 °FSunny.3 mph59%29.89 "Hg10 mi
7:35 PM61 °FSunny.6 mph55%29.88 "Hg10 mi
7:15 PM61 °FSunny.7 mph55%29.88 "Hg10 mi
6:55 PM63 °FSunny.10 mph52%29.88 "Hg10 mi
6:35 PM63 °FPassing clouds.6 mph52%29.88 "Hg10 mi
6:15 PM63 °FPassing clouds.10 mph52%29.87 "Hg10 mi
5:55 PM63 °FSunny.7 mph56%29.86 "Hg10 mi
5:35 PM63 °FPassing clouds.10 mph56%29.87 "Hg10 mi
5:15 PM63 °FPartly sunny.7 mph56%29.88 "Hg10 mi
Weather by CustomWeather, © 2015

See weather overviewHow to use our weather pages